Location: Chircca
(13.7944°S, 72.0608°W)
Time: 06:30:52
(UTC+00:00)

H-2A R/B - Pass Details

Date: 14 July 2020
Orbit: 528 x 653 km, 98.3° (Epoch: 14 August)

Event Time Altitude Azimuth Distance (km) Brightness Sun altitude
Rises 10:13:08 0° 348° (NNW) 2,731 6.0 -14.4°
Reaches altitude 10° 10:15:36 10° 333° (NNW) 1,823 4.9 -13.8°
Maximum altitude 10:18:44 23° 280° (W) 1,189 3.5 -13.1°
Enters shadow 10:19:53 20° 254° (WSW) 1,290 3.5 -12.9°
